timestamp,surface_pressure_avg,surface_temp_avg,battery_voltage,lat,long
2021-12-04 00:19:00+00:00,341.1547,7.74,12.65,47.84626,-54.09684
2021-12-04 00:29:00+00:00,334.6863,7.8,12.65,47.84626,-54.09684
2021-12-04 00:39:00+00:00,333.5247,7.8,12.65,47.84626,-54.09684
2021-12-04 00:49:00+00:00,323.7563,7.8,12.65,47.84626,-54.09684
2021-12-04 00:59:00+00:00,312.7581,7.8,12.65,47.84626,-54.09684
2021-12-04 01:09:00+00:00,309.7296,7.8,12.65,47.84626,-54.09684
2021-12-04 01:19:00+00:00,305.3397,7.8,12.57,47.84626,-54.09684
2021-12-04 01:29:00+00:00,286.2147,7.8,12.57,47.84626,-54.09684
2021-12-04 01:39:00+00:00,273.1664,7.8,12.57,47.84626,-54.09684
2021-12-04 01:49:00+00:00,271.1164,7.8,12.57,47.84626,-54.09684
2021-12-04 01:59:00+00:00,266.9497,7.8,12.57,47.84626,-54.09684
2021-12-04 02:09:00+00:00,254.3098,7.8,12.57,47.84626,-54.09684
2021-12-04 02:19:01+00:00,242.5464,7.8,12.57,47.84626,-54.09684
2021-12-04 02:29:01+00:00,238.9047,7.8,12.57,47.84626,-54.09684
2021-12-04 02:39:01+00:00,227.1764,7.8,12.57,47.84626,-54.09684
2021-12-04 02:49:01+00:00,211.8898,7.77,12.57,47.84626,-54.09684
2021-12-04 02:59:01+00:00,206.6598,7.76,12.57,47.84626,-54.09684
2021-12-04 03:09:01+00:00,200.4214,7.76,12.57,47.84626,-54.09684
2021-12-04 03:19:00+00:00,188.1414,7.7,12.57,47.84626,-54.09684
2021-12-04 03:29:00+00:00,179.2332,7.7,12.57,47.84626,-54.09684
2021-12-04 03:39:00+00:00,177.6098,7.7,12.57,47.84626,-54.09684
2021-12-04 03:49:00+00:00,180.0198,7.7,12.57,47.84626,-54.09684
2021-12-04 03:59:00+00:00,175.9948,7.7,12.57,47.84626,-54.09684
2021-12-04 04:09:00+00:00,172.7248,7.7,12.57,47.84626,-54.09684
2021-12-04 04:19:00+00:00,176.1215,7.7,12.57,47.84626,-54.09684
2021-12-04 04:29:00+00:00,178.8831,7.7,12.57,47.84626,-54.09684
2021-12-04 04:39:00+00:00,171.2432,7.6,12.57,47.84626,-54.09684
2021-12-04 04:49:00+00:00,164.5782,7.6,12.57,47.84626,-54.09684
2021-12-04 04:59:00+00:00,167.9448,7.6,12.57,47.84626,-54.09684
2021-12-04 05:09:00+00:00,168.0148,7.6,12.57,47.84626,-54.09684
2021-12-04 05:19:00+00:00,167.7015,7.6,12.57,47.84626,-54.09684
2021-12-04 05:29:00+00:00,169.0399,7.67,12.57,47.84626,-54.09684
2021-12-04 05:39:00+00:00,176.6265,7.7,12.57,47.84626,-54.09684
2021-12-04 05:49:00+00:00,184.6198,7.7,12.57,47.84626,-54.09684
2021-12-04 05:59:00+00:00,189.1364,7.7,12.57,47.84626,-54.09684
2021-12-04 06:09:00+00:00,197.7315,7.4,12.57,47.84626,-54.09684
2021-12-04 06:19:00+00:00,204.1182,7.4,12.57,47.84626,-54.09684
2021-12-04 06:29:00+00:00,209.4315,7.42,12.57,47.84626,-54.09684
2021-12-04 06:39:00+00:00,213.4881,7.36,12.57,47.84626,-54.09684
2021-12-04 06:49:00+00:00,219.8464,7.3,12.57,47.84626,-54.09684
2021-12-04 06:59:00+00:00,227.5148,7.2,12.57,47.84626,-54.09684
2021-12-04 07:09:00+00:00,236.7397,7.31,12.57,47.84626,-54.09684
2021-12-04 07:19:00+00:00,246.1547,7.34,12.57,47.84626,-54.09684
2021-12-04 07:29:00+00:00,255.5948,7.4,12.57,47.84626,-54.09684
2021-12-04 07:39:00+00:00,263.7514,7.44,12.57,47.84626,-54.09684
2021-12-04 07:49:00+00:00,271.2248,7.5,12.57,47.84626,-54.09684
2021-12-04 07:59:00+00:00,275.5764,7.7,12.57,47.84626,-54.09684
2021-12-04 08:09:00+00:00,282.5914,7.7,12.57,47.84626,-54.09684
2021-12-04 08:19:01+00:00,286.4714,7.75,12.57,47.84626,-54.09684
2021-12-04 08:29:01+00:00,291.1947,7.82,12.57,47.84626,-54.09684
2021-12-04 08:39:01+00:00,297.5864,7.89,12.57,47.84626,-54.09684
2021-12-04 08:49:01+00:00,312.233,7.9,12.57,47.84626,-54.09684
2021-12-04 08:59:01+00:00,323.9497,7.9,12.57,47.84626,-54.09684
2021-12-04 09:09:01+00:00,330.6263,7.9,12.57,47.84626,-54.09684
2021-12-04 09:19:01+00:00,339.338,7.92,12.49,47.84626,-54.09684
2021-12-04 09:29:01+00:00,354.3229,8.0,12.49,47.84626,-54.09684
2021-12-04 09:39:01+00:00,366.7546,8.1,12.49,47.84626,-54.09684
2021-12-04 09:49:01+00:00,368.2996,8.16,12.49,47.84626,-54.09684
2021-12-04 09:59:01+00:00,371.8096,8.2,12.49,47.84626,-54.09684
2021-12-04 10:09:01+00:00,383.4896,8.2,12.49,47.84626,-54.09684
2021-12-04 10:19:00+00:00,391.2645,8.17,12.49,47.84626,-54.09684
2021-12-04 10:29:00+00:00,395.7362,8.2,12.49,47.84626,-54.09684
2021-12-04 10:39:00+00:00,406.1962,8.25,12.49,47.84626,-54.09684
2021-12-04 10:49:00+00:00,415.908,8.29,12.49,47.84626,-54.09684
2021-12-04 10:59:00+00:00,418.1363,8.28,12.49,47.84626,-54.09684
2021-12-04 11:09:00+00:00,415.4313,8.2,12.49,47.84626,-54.09684
2021-12-04 11:19:00+00:00,421.1979,8.2,12.49,47.84626,-54.09684
2021-12-04 11:29:00+00:00,430.5229,8.2,12.49,47.84626,-54.09684
2021-12-04 11:39:00+00:00,422.4395,8.29,12.49,47.84626,-54.09684
2021-12-04 11:49:00+00:00,413.7162,8.3,12.49,47.84626,-54.09684
2021-12-04 11:59:00+00:00,413.8029,8.3,12.49,47.84626,-54.09684
2021-12-04 12:09:00+00:00,416.6329,8.2,12.49,47.84626,-54.09684
2021-12-04 12:19:00+00:00,406.1179,8.11,12.73,47.84626,-54.09684
2021-12-04 12:29:00+00:00,395.0845,8.2,12.73,47.84626,-54.09684
2021-12-04 12:39:00+00:00,395.9596,8.2,12.73,47.84626,-54.09684
2021-12-04 12:49:00+00:00,389.3596,8.2,12.73,47.84626,-54.09684
2021-12-04 12:59:00+00:00,382.1379,8.2,12.73,47.84626,-54.09684
2021-12-04 13:09:00+00:00,381.57800000000003,8.2,12.73,47.84626,-54.09684
2021-12-04 13:19:00+00:00,380.5529,8.22,13.13,47.84626,-54.09684
2021-12-04 13:29:00+00:00,371.0463,8.2,13.13,47.84626,-54.09684
2021-12-04 13:39:00+00:00,363.8996,8.3,13.13,47.84626,-54.09684
2021-12-04 13:49:00+00:00,356.3896,8.3,13.13,47.84626,-54.09684
2021-12-04 13:59:00+00:00,348.1063,8.28,13.13,47.84626,-54.09684
2021-12-04 14:09:00+00:00,338.0862,8.23,13.13,47.84626,-54.09684
2021-12-04 14:19:01+00:00,323.988,8.2,14.56,47.84626,-54.09684
2021-12-04 14:29:01+00:00,310.903,8.2,14.56,47.84626,-54.09684
2021-12-04 14:39:01+00:00,302.8214,8.28,14.56,47.84626,-54.09684
2021-12-04 14:49:01+00:00,293.0597,8.2,14.56,47.84626,-54.09684
2021-12-04 14:59:01+00:00,279.8664,8.24,14.56,47.84626,-54.09684
2021-12-04 15:09:01+00:00,270.2347,8.29,14.56,47.84626,-54.09684
2021-12-04 15:19:00+00:00,262.2314,8.3,14.72,47.84626,-54.09684
2021-12-04 15:29:00+00:00,248.5965,8.2,14.72,47.84626,-54.09684
2021-12-04 15:39:00+00:00,232.5797,8.2,14.72,47.84626,-54.09684
2021-12-04 15:49:00+00:00,223.3947,8.2,14.72,47.84626,-54.09684
2021-12-04 15:59:00+00:00,216.4831,8.19,14.72,47.84626,-54.09684
2021-12-04 16:09:00+00:00,209.6682,8.1,14.72,47.84626,-54.09684
2021-12-04 16:19:00+00:00,201.2914,8.07,14.64,47.84626,-54.09684
2021-12-04 16:29:00+00:00,196.7648,8.0,14.64,47.84626,-54.09684
2021-12-04 16:39:00+00:00,197.3098,8.0,14.64,47.84626,-54.09684
2021-12-04 16:49:00+00:00,192.7731,8.0,14.64,47.84626,-54.09684
2021-12-04 16:59:00+00:00,186.1915,7.99,14.64,47.84626,-54.09684
2021-12-04 17:09:00+00:00,189.5515,7.9,14.64,47.84626,-54.09684
2021-12-04 17:19:01+00:00,193.1248,7.8,14.48,47.84626,-54.09684
2021-12-04 17:29:01+00:00,188.9015,7.8,14.48,47.84626,-54.09684
2021-12-04 17:39:01+00:00,186.3581,7.78,14.48,47.84626,-54.09684
2021-12-04 17:49:01+00:00,189.7081,7.7,14.48,47.84626,-54.09684
2021-12-04 17:59:01+00:00,191.7781,7.78,14.48,47.84626,-54.09684
2021-12-04 18:09:01+00:00,188.2632,7.9,14.48,47.84626,-54.09684
2021-12-04 18:19:00+00:00,186.7281,7.98,14.4,47.84626,-54.09684
2021-12-04 18:29:00+00:00,191.0515,8.0,14.4,47.84626,-54.09684
2021-12-04 18:39:00+00:00,194.0982,8.0,14.4,47.84626,-54.09684
2021-12-04 18:49:00+00:00,197.3831,7.85,14.4,47.84626,-54.09684
2021-12-04 18:59:00+00:00,203.1165,7.7,14.4,47.84626,-54.09684
2021-12-04 19:09:00+00:00,207.4531,7.6,14.4,47.84626,-54.09684
2021-12-04 19:19:01+00:00,212.4898,7.5,13.84,47.84626,-54.09684
2021-12-04 19:29:01+00:00,217.2631,7.4,13.84,47.84626,-54.09684
2021-12-04 19:39:01+00:00,221.7947,7.3,13.84,47.84626,-54.09684
2021-12-04 19:49:01+00:00,226.5748,7.42,13.84,47.84626,-54.09684
2021-12-04 19:59:01+00:00,231.2631,7.67,13.84,47.84626,-54.09684
2021-12-04 20:09:01+00:00,234.4414,7.6,13.84,47.84626,-54.09684
2021-12-04 20:19:00+00:00,241.1381,7.79,13.37,47.84626,-54.09684
2021-12-04 20:29:00+00:00,245.5814,8.0,13.37,47.84626,-54.09684
2021-12-04 20:39:00+00:00,253.0064,8.0,13.37,47.84626,-54.09684
2021-12-04 20:49:00+00:00,261.6014,8.02,13.37,47.84626,-54.09684
2021-12-04 20:59:00+00:00,270.9897,8.0,13.37,47.84626,-54.09684
2021-12-04 21:09:00+00:00,279.2964,8.1,13.37,47.84626,-54.09684
2021-12-04 21:19:00+00:00,290.5897,8.1,13.05,47.84626,-54.09684
2021-12-04 21:29:00+00:00,301.6113,8.14,13.05,47.84626,-54.09684
2021-12-04 21:39:00+00:00,311.1714,8.1,13.05,47.84626,-54.09684
2021-12-04 21:49:00+00:00,316.5047,8.1,13.05,47.84626,-54.09684
2021-12-04 21:59:00+00:00,322.9863,8.0,13.05,47.84626,-54.09684
2021-12-04 22:09:00+00:00,331.1646,8.0,13.05,47.84626,-54.09684
2021-12-04 22:19:00+00:00,341.1981,7.91,12.73,47.84626,-54.09684
2021-12-04 22:29:00+00:00,345.0679,8.33,12.73,47.84626,-54.09684
2021-12-04 22:39:00+00:00,354.48800000000006,8.1,12.73,47.84626,-54.09684
2021-12-04 22:49:00+00:00,364.1163,8.25,12.73,47.84626,-54.09684
2021-12-04 22:59:00+00:00,364.6179,8.3,12.73,47.84626,-54.09684
2021-12-04 23:09:00+00:00,368.4229,8.37,12.73,47.84626,-54.09684
2021-12-04 23:19:00+00:00,371.8163,8.39,12.65,47.84626,-54.09684
2021-12-04 23:29:00+00:00,375.4747,8.4,12.65,47.84626,-54.09684
2021-12-04 23:39:00+00:00,379.6412,8.5,12.65,47.84626,-54.09684
2021-12-04 23:49:00+00:00,381.9362,8.56,12.65,47.84626,-54.09684
2021-12-04 23:59:00+00:00,381.9261,8.5,12.65,47.84626,-54.09684
